Location: Hoyos del Collado
(40.3594°N, 5.2003°W)
Time: 13:49:50
(UTC+00:00)

ISS - Pass Details

Date: 29 June 2024
Orbit: 410 x 424 km, 51.6° (Epoch: 13 July)

Event Time Altitude Azimuth Distance (km) Brightness Sun altitude
Exits shadow 03:20:38 - 287° (WNW) 1,711 -0.9 -14.4°
Reaches altitude 10° 03:21:23 10° 295° (WNW) 1,485 -1.1 -14.3°
Maximum altitude 03:23:47 18° 342° (NNW) 1,088 -1.3 -14.0°
Drops below altitude 10° 03:26:12 10° 28° (NNE) 1,494 0.3 -13.7°
Sets 03:28:46 0° 48° (NE) 2,363 2.1 -13.3°
